TimeAKDT,TemperatureF,Dew PointF,Humidity,Sea Level PressureIn,VisibilityMPH,Wind Direction,Wind SpeedMPH,Gust SpeedMPH,PrecipitationIn,Events,Conditions,WindDirDegrees,DateUTC
12:16 AM,44.6,41.0,87,30.26,10.0,West,3.5,-,N/A,,Clear,270,2012-09-19 08:16:00
12:36 AM,44.6,42.8,93,30.27,10.0,Calm,Calm,-,N/A,,Clear,0,2012-09-19 08:36:00
12:56 AM,44.6,42.8,93,30.27,10.0,Calm,Calm,-,N/A,,Clear,0,2012-09-19 08:56:00
1:16 AM,44.6,41.0,87,30.27,10.0,SE,3.5,-,N/A,,Clear,140,2012-09-19 09:16:00
1:36 AM,44.6,41.0,87,30.26,10.0,SE,3.5,-,N/A,,Clear,130,2012-09-19 09:36:00
1:56 AM,44.6,41.0,87,30.26,10.0,Calm,Calm,-,N/A,,Clear,0,2012-09-19 09:56:00
2:16 AM,44.6,41.0,87,30.27,10.0,Calm,Calm,-,N/A,,Clear,0,2012-09-19 10:16:00
2:36 AM,44.6,41.0,87,30.27,10.0,Calm,Calm,-,N/A,,Clear,0,2012-09-19 10:36:00
2:56 AM,44.6,41.0,87,30.28,10.0,Calm,Calm,-,N/A,,Clear,0,2012-09-19 10:56:00
3:16 AM,44.6,42.8,93,30.28,10.0,ESE,4.6,-,N/A,,Partly Cloudy,110,2012-09-19 11:16:00
3:36 AM,44.6,42.8,93,30.28,8.0,SE,4.6,-,N/A,,Mostly Cloudy,130,2012-09-19 11:36:00
3:56 AM,44.6,41.0,87,30.27,0.2,ESE,4.6,-,N/A,,Overcast,120,2012-09-19 11:56:00
4:16 AM,44.6,42.8,93,30.27,0.2,SE,4.6,-,N/A,,Overcast,130,2012-09-19 12:16:00
4:36 AM,44.6,41.0,87,30.27,0.2,ESE,4.6,-,N/A,,Overcast,120,2012-09-19 12:36:00
4:56 AM,44.6,41.0,87,30.27,0.2,ESE,3.5,-,N/A,,Overcast,110,2012-09-19 12:56:00
5:16 AM,44.6,42.8,93,30.27,0.2,East,5.8,-,N/A,,Overcast,100,2012-09-19 13:16:00
5:36 AM,44.6,41.0,87,30.28,0.2,ESE,5.8,-,N/A,,Overcast,110,2012-09-19 13:36:00
5:56 AM,42.8,41.0,93,30.28,0.2,ESE,3.5,-,N/A,,Overcast,110,2012-09-19 13:56:00
6:16 AM,42.8,41.0,93,30.29,0.2,Calm,Calm,-,N/A,,Overcast,0,2012-09-19 14:16:00
6:36 AM,42.8,41.0,93,30.29,0.2,Calm,Calm,-,N/A,,Overcast,0,2012-09-19 14:36:00
6:56 AM,42.8,39.2,87,30.29,0.2,Calm,Calm,-,N/A,,Overcast,0,2012-09-19 14:56:00
7:16 AM,42.8,41.0,93,30.29,0.2,Calm,Calm,-,N/A,,Overcast,0,2012-09-19 15:16:00
7:36 AM,44.6,41.0,87,30.29,0.2,ESE,4.6,-,N/A,,Overcast,120,2012-09-19 15:36:00
7:56 AM,42.8,41.0,93,30.29,0.2,ESE,5.8,-,N/A,,Overcast,120,2012-09-19 15:56:00
8:16 AM,44.6,41.0,87,30.29,0.5,South,4.6,-,N/A,,Mostly Cloudy,170,2012-09-19 16:16:00
8:36 AM,44.6,42.8,93,30.30,0.5,East,4.6,-,N/A,,Mostly Cloudy,100,2012-09-19 16:36:00
8:56 AM,44.6,42.8,93,30.30,2.0,ESE,3.5,-,N/A,,Mostly Cloudy,120,2012-09-19 16:56:00
9:06 AM,44.6,42.8,93,30.31,0.5,South,4.6,-,N/A,Fog,Fog,170,2012-09-19 17:06:00
9:16 AM,44.6,42.8,93,30.30,0.5,ESE,4.6,-,N/A,,Overcast,110,2012-09-19 17:16:00
9:36 AM,44.6,42.8,93,30.31,0.5,East,3.5,-,N/A,,Overcast,100,2012-09-19 17:36:00
9:56 AM,44.6,42.8,93,30.31,0.5,NNE,4.6,-,N/A,,Overcast,30,2012-09-19 17:56:00
9:59 AM,44.6,42.8,93,30.32,4.0,North,4.6,-,N/A,,Overcast,360,2012-09-19 17:59:00
10:08 AM,44.6,42.8,93,30.31,10.0,NNE,3.5,-,N/A,,Mostly Cloudy,30,2012-09-19 18:08:00
10:16 AM,44.6,42.8,93,30.31,10.0,Calm,Calm,-,N/A,,Mostly Cloudy,0,2012-09-19 18:16:00
10:36 AM,46.4,42.8,87,30.31,10.0,Calm,Calm,-,N/A,,Mostly Cloudy,0,2012-09-19 18:36:00
10:56 AM,46.4,42.8,87,30.31,10.0,Calm,Calm,-,N/A,,Mostly Cloudy,0,2012-09-19 18:56:00
11:16 AM,48.2,44.6,87,30.32,10.0,Calm,Calm,-,N/A,,Mostly Cloudy,0,2012-09-19 19:16:00
11:36 AM,48.2,44.6,87,30.32,10.0,NW,4.6,-,N/A,,Mostly Cloudy,320,2012-09-19 19:36:00
11:56 AM,48.2,42.8,82,30.32,10.0,Calm,Calm,-,N/A,,Overcast,0,2012-09-19 19:56:00
12:16 PM,48.2,44.6,87,30.32,10.0,Calm,Calm,-,N/A,,Overcast,0,2012-09-19 20:16:00
12:36 PM,48.2,44.6,87,30.32,10.0,Calm,Calm,-,N/A,,Overcast,0,2012-09-19 20:36:00
12:56 PM,50.0,44.6,82,30.32,10.0,NW,4.6,-,N/A,,Overcast,320,2012-09-19 20:56:00
1:16 PM,50.0,44.6,82,30.32,10.0,NW,5.8,-,N/A,,Overcast,310,2012-09-19 21:16:00
1:36 PM,51.8,44.6,76,30.33,10.0,NW,3.5,-,N/A,,Overcast,310,2012-09-19 21:36:00
1:56 PM,51.8,44.6,76,30.32,10.0,NW,3.5,-,N/A,,Overcast,320,2012-09-19 21:56:00
2:16 PM,51.8,46.4,82,30.32,10.0,NW,3.5,-,N/A,,Overcast,320,2012-09-19 22:16:00
2:36 PM,51.8,46.4,82,30.32,10.0,Calm,Calm,-,N/A,,Overcast,0,2012-09-19 22:36:00
2:56 PM,53.6,46.4,77,30.31,10.0,NW,3.5,-,N/A,,Overcast,320,2012-09-19 22:56:00
3:16 PM,53.6,46.4,77,30.31,10.0,NW,4.6,-,N/A,,Overcast,320,2012-09-19 23:16:00
3:36 PM,55.4,46.4,72,30.31,10.0,NW,5.8,-,N/A,,Overcast,310,2012-09-19 23:36:00
3:56 PM,55.4,46.4,72,30.30,10.0,Calm,Calm,-,N/A,,Mostly Cloudy,0,2012-09-19 23:56:00
4:16 PM,55.4,46.4,72,30.30,10.0,WNW,4.6,-,N/A,,Mostly Cloudy,300,2012-09-20 00:16:00
4:36 PM,55.4,46.4,72,30.29,10.0,NNW,4.6,-,N/A,,Mostly Cloudy,330,2012-09-20 00:36:00
4:56 PM,53.6,46.4,77,30.29,10.0,NW,3.5,-,N/A,,Mostly Cloudy,320,2012-09-20 00:56:00
5:16 PM,53.6,46.4,77,30.29,10.0,NNW,3.5,-,N/A,,Mostly Cloudy,340,2012-09-20 01:16:00
5:36 PM,51.8,46.4,82,30.28,10.0,North,3.5,-,N/A,,Mostly Cloudy,360,2012-09-20 01:36:00
5:56 PM,51.8,44.6,76,30.28,10.0,Calm,Calm,-,N/A,,Mostly Cloudy,0,2012-09-20 01:56:00
6:16 PM,51.8,44.6,76,30.28,10.0,Calm,Calm,-,N/A,,Mostly Cloudy,0,2012-09-20 02:16:00
6:36 PM,51.8,46.4,82,30.28,10.0,Calm,Calm,-,N/A,,Mostly Cloudy,0,2012-09-20 02:36:00
6:56 PM,50.0,44.6,82,30.28,10.0,Calm,Calm,-,N/A,,Mostly Cloudy,0,2012-09-20 02:56:00
7:16 PM,50.0,44.6,82,30.28,10.0,Calm,Calm,-,N/A,,Mostly Cloudy,0,2012-09-20 03:16:00
7:36 PM,50.0,44.6,82,30.28,10.0,Calm,Calm,-,N/A,,Mostly Cloudy,0,2012-09-20 03:36:00
7:56 PM,50.0,44.6,82,30.28,10.0,North,3.5,-,N/A,,Mostly Cloudy,360,2012-09-20 03:56:00
8:16 PM,50.0,44.6,82,30.28,10.0,Calm,Calm,-,N/A,,Mostly Cloudy,0,2012-09-20 04:16:00
8:36 PM,48.2,44.6,87,30.28,10.0,Calm,Calm,-,N/A,,Mostly Cloudy,0,2012-09-20 04:36:00
8:56 PM,48.2,44.6,87,30.28,10.0,Calm,Calm,-,N/A,,Mostly Cloudy,0,2012-09-20 04:56:00
9:16 PM,50.0,44.6,82,30.29,10.0,ESE,3.5,-,N/A,,Mostly Cloudy,120,2012-09-20 05:16:00
9:36 PM,48.2,42.8,82,30.28,10.0,Calm,Calm,-,N/A,,Mostly Cloudy,0,2012-09-20 05:36:00
9:56 PM,48.2,44.6,87,30.29,10.0,Calm,Calm,-,N/A,,Mostly Cloudy,0,2012-09-20 05:56:00
10:16 PM,46.4,42.8,87,30.28,10.0,Calm,Calm,-,N/A,,Mostly Cloudy,0,2012-09-20 06:16:00
10:36 PM,48.2,42.8,82,30.29,10.0,Calm,Calm,-,N/A,,Mostly Cloudy,0,2012-09-20 06:36:00
10:56 PM,46.4,42.8,87,30.29,10.0,Calm,Calm,-,N/A,,Mostly Cloudy,0,2012-09-20 06:56:00
11:16 PM,48.2,44.6,87,30.29,10.0,Calm,Calm,-,N/A,,Clear,0,2012-09-20 07:16:00
11:36 PM,48.2,42.8,82,30.29,10.0,Calm,Calm,-,N/A,,Clear,0,2012-09-20 07:36:00
11:56 PM,46.4,42.8,87,30.28,10.0,Calm,Calm,-,N/A,,Clear,0,2012-09-20 07:56:00